Location: Alston School (historical)
(35.5076°N, 89.8251°W)
Time: 01:29:04
(UTC+00:00)

ARIANE 5 R/B - Pass Details

Date: 09 December 2025
Orbit: 747 x 792 km, 98.8° (Epoch: 18 January)

Event Time Altitude Azimuth Distance (km) Brightness Sun altitude
Rises 12:14:39 0° 17° (NNE) 3,291 5.7 -8.7°
Reaches altitude 10° 12:17:01 10° 21° (NNE) 2,360 5.0 -8.2°
Maximum altitude 12:22:11 61° 102° (ESE) 894 3.2 -7.3°
Drops below altitude 10° 12:27:18 10° 182° (S) 2,345 5.3 -6.3°
Sets 12:29:38 0° 186° (S) 3,268 6.0 -5.9°
